Tracking 28052 objects as of 22-Sep-2023
HD Live streaming from Space Station
objects crossing your sky now

STARLINK-3837

Track STARLINK-3837 now!
10-day predictions
STARLINK-3837 is classified as:


NORAD ID: 52358
Int'l Code: 2022-045AD
Perigee: 545.7 km
Apogee: 548.0 km
Inclination: 53.2 °
Period: 95.4 minutes
Semi major axis: 6917 km
RCS: Unknown
Launch date: April 29, 2022
Source: United States (US)
Launch site: AIR FORCE EASTERN TEST RANGE (AFETR)
Your satellite tracking list
Your tracking list is empty




NASA's NSSDC Master Catalog

Two Line Element Set (TLE):
1 52358U 22045AD  23265.18923625  .00003718  00000-0  25155-3 0  9990
2 52358  53.2174 277.1382 0001651  91.7132 268.4049 15.08842305 79996
Source of the keplerian elements: AFSPC